Change the Weather History Date:

Monday, August 12, 2013

  Actual Average Record
Temperature  
Mean Temperature 86 °F -  
Max Temperature 95 °F 88 °F 96 °F (1999)
Min Temperature 77 °F 71 °F 66 °F (2002)
Cooling Degree Days 21    
Growing Degree Days 36 (Base 50)    
Moisture  
Dew Point 73 °F    
Average Humidity 66    
Maximum Humidity 91    
Minimum Humidity 40    
Precipitation  
Precipitation 0.00 in - - ()
Sea Level Pressure  
Sea Level Pressure 30.07 in    
Wind  
Wind Speed 4 mph (West)    
Max Wind Speed 8 mph    
Max Gust Speed -    
Visibility 10 miles    
Events Rain    
Averages and records for this station are not official NWS values.
T = Trace of Precipitation, MM = Missing Value Source: NWS Daily Summary

Daily Weather History Graph

Daily Weather History Graph

Search for Another Location

Airport or City:

Trip Planner

Search our weather history database for the weather conditions in past years. The results will help you decide how hot, cold, wet, or windy it might be!

Date:

Astronomy

Aug. 12, 2013 Rise Set
Actual Time 6:57 AM EDT 8:17 PM EDT
Civil Twilight 6:31 AM EDT 8:43 PM EDT
Nautical Twilight 6:00 AM EDT 9:13 PM EDT
Astronomical Twilight 5:29 AM EDT 9:45 PM EDT
Moon 12:19 PM EDT (8/12) 11:39 PM EDT (8/12)
Length of Visible Light 14h 11m
Length of Day
13h 20m
Waxing Crescent, 31% of the Moon is Illuminated
Aug 12
Waxing Crescent
Aug 14
First Quarter
Aug 20
Full
Aug 28
Last Quarter
Sep 5
New

Hourly Weather History & Observations

Time (EDT) Temp. Heat Index Dew Point Humidity Pressure Visibility Wind Dir Wind Speed Gust Speed Precip Events Conditions
12:58 AM 80.8 °F 86.3 °F 74.7 °F 82% 30.13 in 10.0 mi West 3.5 mph - N/A   Clear
1:58 AM 79.9 °F - 74.8 °F 85% 30.11 in 10.0 mi WSW 2.3 mph - N/A   Clear
2:58 AM 79.0 °F - 74.8 °F 87% 30.10 in 10.0 mi SSW 4.6 mph - N/A   Clear
3:58 AM 78.8 °F - 74.7 °F 87% 30.10 in 10.0 mi SW 2.3 mph - N/A   Clear
4:58 AM 78.4 °F - 74.7 °F 88% 30.10 in 10.0 mi SW 2.3 mph - N/A   Scattered Clouds
5:58 AM 77.7 °F - 74.7 °F 90% 30.11 in 10.0 mi WNW 4.6 mph - N/A   Overcast
6:58 AM 77.0 °F - 74.3 °F 91% 30.12 in 10.0 mi WNW 3.5 mph - N/A   Clear
7:58 AM 77.5 °F - 73.9 °F 89% 30.13 in 10.0 mi WNW 3.5 mph - N/A   Clear
8:58 AM 81.7 °F 87.3 °F 73.8 °F 77% 30.12 in 10.0 mi NW 3.5 mph - N/A   Clear
9:58 AM 85.5 °F 93.8 °F 74.5 °F 70% 30.12 in 10.0 mi NW 4.6 mph - N/A   Clear
10:58 AM 88.5 °F 97.8 °F 74.3 °F 63% 30.11 in 10.0 mi North 4.6 mph - N/A   Clear
11:58 AM 90.7 °F 99.0 °F 73.0 °F 56% 30.10 in 10.0 mi WSW 5.8 mph - N/A   Clear
12:58 PM 91.6 °F 98.8 °F 72.0 °F 52% 30.09 in 10.0 mi WSW 5.8 mph - N/A   Scattered Clouds
1:58 PM 93.6 °F 101.3 °F 71.8 °F 49% 30.08 in 10.0 mi West 6.9 mph - N/A   Scattered Clouds
2:58 PM 94.8 °F 102.8 °F 72.0 °F 47% 30.06 in 10.0 mi WNW 5.8 mph - N/A   Partly Cloudy
3:58 PM 95.2 °F 101.0 °F 69.4 °F 43% 30.03 in 10.0 mi WSW 6.9 mph - N/A   Partly Cloudy
4:01 PM 95.0 °F 101.3 °F 69.8 °F 44% 30.03 in 10.0 mi West 6.9 mph - N/A Rain Light Rain
4:09 PM 95.0 °F 101.3 °F 69.8 °F 44% 30.03 in 10.0 mi West 4.6 mph - N/A   Clear
4:58 PM 94.8 °F 102.1 °F 70.9 °F 46% 30.02 in 10.0 mi Variable 2.3 mph - 0.00 in   Clear
5:58 PM 94.8 °F 98.7 °F 67.3 °F 40% 30.01 in 10.0 mi West 8.1 mph - N/A   Clear
6:58 PM 93.2 °F 98.8 °F 69.4 °F 46% 30.01 in 10.0 mi West 4.6 mph - N/A   Clear
7:58 PM 90.7 °F 96.9 °F 71.1 °F 52% 30.01 in 10.0 mi West 4.6 mph - N/A   Clear
8:58 PM 87.6 °F 93.9 °F 71.6 °F 59% 30.01 in 10.0 mi SW 3.5 mph - N/A   Clear
9:58 PM 83.7 °F 88.9 °F 71.6 °F 67% 30.02 in 10.0 mi SSW 3.5 mph - N/A   Clear
10:58 PM 80.2 °F 84.9 °F 73.8 °F 81% 30.05 in 10.0 mi SW 4.6 mph - N/A   Clear
11:58 PM 81.7 °F 88.0 °F 75.0 °F 80% 30.05 in 10.0 mi WSW 8.1 mph - N/A   Clear